Overview Statistics Trail Chart Weather Telemetry Raw packets
 

This is the latest recevied weather packets stored in our database for station/object HG5CJW-10. If no packets are shown the sender has not sent any weather packets the latest 10 day(s).

<< 6 7 8 9 10 11 12 >>
Time Temp. Humidity Pressure Rain* Wind** Luminosity Snow
1788480281 20° C 53% 1037.2 hPa - - - -
1788479380 20.56° C 53% 1037.4 hPa - - - -
1788478480 20.56° C 52% 1037.4 hPa - - - -
1788477580 20.56° C 52% 1037.6 hPa - - - -
1788476680 21.11° C 51% 1037.7 hPa - - - -
1788475780 21.11° C 51% 1037.5 hPa - - - -
1788474880 21.11° C 51% 1037.5 hPa - - - -
1788473980 21.11° C 51% 1037.4 hPa - - - -
1788473080 21.67° C 51% 1037.5 hPa - - - -
1788472180 21.67° C 51% 1037.6 hPa - - - -
1788471274 21.67° C 50% 1037.4 hPa - - - -
1788470374 21.67° C 50% 1037.3 hPa - - - -
1788469474 22.22° C 50% 1037.4 hPa - - - -
1788468574 22.22° C 50% 1037.2 hPa - - - -
1788467674 22.22° C 50% 1037.2 hPa - - - -
1788466774 22.22° C 49% 1037.2 hPa - - - -
1788465874 22.78° C 49% 1037.4 hPa - - - -
1788464974 22.78° C 49% 1037.4 hPa - - - -
1788464074 22.78° C 49% 1037.3 hPa - - - -
1788463174 22.78° C 48% 1037.2 hPa - - - -
1788462274 23.33° C 48% 1037.3 hPa - - - -
1788461374 23.33° C 48% 1037.3 hPa - - - -
1788460474 23.33° C 48% 1037.3 hPa - - - -
1788459574 22.78° C 48% 1037.3 hPa - - - -
1788458674 21.67° C 50% 1036.9 hPa - - - -

* Rain since midnight (hover to see other rain measurements)
** Current wind speed in m/s (hover to see current wind gust speed)